[[{"header":{"parameterUnit":"m.s-1","parameterCategory":1,"la1":30.2991,"la2":30.254,"lo1":-89.0895,"lo2":-89.0444,"dy":0.0017,"dx":0.0017,"nx":28,"ny":28,"refTime":"2023-08-02T21:00:00:Z","depth":0,"parameterNumber":2,"parameterNumberName":"U-component_of_WINDS"},"data":[0,0,0,0,0,0,0,0,0,0,0,0,0,0,0,0,0,0,0,0,0,0,0,0,0,0,0,0,0,0,0,0,0,0,0,0,0,0,0,0,0,0,0,0,0,0,0,0,0,0,0,0,0,0,0,0,0,0,0.4636,0.4637,0,0.4742,0.4743,0.4744,0.4794,0.4794,0.4794,0.4794,0.4903,0.4906,0.4909,0,0,0,0,0,0,0,0,0,0,0,0,0,0.4476,0.4479,0.4636,0.4637,0.4638,0.4742,0.4743,0.4744,0.4794,0.4794,0.4794,0.4794,0.4902,0.4906,0.4909,0,0,0,0,0,0,0,0,0,0,0,0,0,0.456,0.4479,0.4635,0.4676,0.468,0.4741,0.4743,0.4745,0.4794,0.4794,0.4794,0.4794,0.4901,0.4905,0.491,0.4939,0,0,0.4923,0.4925,0,0,0,0,0,0,0,0,0.4555,0.4566,0.4668,0.4673,0.4678,0.4755,0.4727,0.481,0.4794,0.4751,0.4794,0.4794,0.4854,0.4862,0.4882,0.4944,0.4949,0.4924,0.4926,0.4928,0.493,0,0,0,0,0,0,0,0.4549,0.4561,0.4678,0.467,0.4676,0.4688,0.47,0.4743,0.4802,0.4755,0.4759,0.4771,0.4857,0.4878,0.4885,0.495,0.4924,0.4928,0.493,0.4932,0.504,0.5041,0,0,0,0,0,0,0.4537,0.4556,0.4674,0.4681,0.4615,0.4691,0.4704,0.473,0.4801,0.4812,0.4771,0.4773,0.487,0.488,0.4889,0.4928,0.4928,0.4932,0.4935,0.504,0.5041,0.5041,0,0,0,0,0,0,0.4533,0.4547,0.467,0.462,0.4636,0.4694,0.4723,0.4732,0.4754,0.4813,0.4824,0.4782,0.4871,0.4883,0.4926,0.4932,0.4934,0.4938,0.504,0.504,0.5041,0.5005,0,0,0,0,0,0,0.4528,0.4545,0.4557,0.462,0.4639,0.4705,0.4723,0.4735,0.4761,0.4765,0.4826,0.4837,0.4872,0.4919,0.493,0.4938,0.4942,0.504,0.504,0.5041,0.5006,0.5004,0.5003,0,0,0,0,0,0.4523,0.4543,0.4557,0.4571,0.4655,0.4705,0.4716,0.4756,0.4762,0.4774,0.4812,0.4835,0.493,0.4923,0.4936,0.4946,0.504,0.504,0.5041,0.5007,0.5005,0.5003,0,0,0,0,0,0,0.448,0.4552,0.4569,0.461,0.4651,0.4714,0.473,0.4753,0.4793,0.4795,0.4842,0.4856,0.4894,0.4924,0.4916,0.4977,0.4987,0.499,0.4956,0.4955,0.4953,0.4945,0.4946,0,0,0,0,0,0.4475,0.4511,0.4571,0.4602,0.4622,0.4672,0.4696,0.4723,0.4767,0.4785,0.4826,0.4868,0.4908,0.4933,0.4973,0.501,0.5024,0.5023,0.5021,0.502,0.5022,0.5044,0.5044,0.5042,0.5042,0.5042,0,0,0.4466,0.451,0.4529,0.4595,0.463,0.4665,0.4687,0.4723,0.4749,0.4791,0.4834,0.4865,0.4916,0.4956,0.4976,0.4982,0.5025,0.502,0.5019,0.5022,0.5044,0.5044,0.5044,0.5043,0.5043,0.5043,0,0,0.4468,0.4504,0.4534,0.4568,0.4621,0.4654,0.4661,0.472,0.4743,0.4786,0.4818,0.485,0.4917,0.4951,0.4978,0.4991,0.5013,0.5002,0.4994,0.5014,0.5014,0.5015,0.502,0.5021,0.5004,0.5004,0.5004,0,0.445,0.4505,0.4546,0.4581,0.4608,0.4647,0.4677,0.4708,0.4771,0.4789,0.4795,0.4879,0.4916,0.4964,0.4967,0.4987,0.4997,0.4996,0.5011,0.5012,0.5013,0.5018,0.5019,0.5003,0.5003,0.5003,0.5003,0,0.448,0.4517,0.4535,0.4594,0.4623,0.4655,0.4701,0.4726,0.475,0.4783,0.4826,0.4871,0.4921,0.4934,0.4958,0.4986,0.4988,0.5002,0.5012,0.5011,0.5016,0.5018,0.5,0.5001,0.5001,0.5002,0,0,0.4459,0.454,0.4546,0.4573,0.4633,0.4663,0.4696,0.4744,0.4764,0.4806,0.4835,0.489,0.4903,0.4932,0.4961,0.4978,0.4986,0.499,0.4992,0.4988,0.5019,0.5008,0.501,0.5001,0.5001,0.5002,0.5015,0,0.4469,0.4531,0.4569,0.4615,0.465,0.4686,0.4715,0.4755,0.4786,0.482,0.4854,0.4892,0.4906,0.4924,0.4944,0.4981,0.4993,0.498,0.5028,0.5029,0.5015,0.5013,0.5002,0.5012,0.5017,0.5017,0.5018,0,0.449,0.453,0.458,0.4636,0.4652,0.4677,0.4724,0.4755,0.4801,0.4822,0.4854,0.4883,0.4919,0.4926,0.4976,0.4967,0.4988,0.5009,0.5011,0.5017,0.5024,0.5019,0.5017,0.5018,0.5022,0.5021,0.5021,0,0.4469,0.4536,0.4575,0.4597,0.4663,0.468,0.4708,0.4753,0.4779,0.482,0.4837,0.4881,0.4905,0.4939,0.4978,0.4979,0.5024,0.5034,0.5043,0.5042,0.5051,0.505,0.5052,0.5064,0.5064,0.5064,0.5064,0,0.4477,0.4506,0.4566,0.459,0.4623,0.4666,0.4698,0.4729,0.4769,0.4799,0.4833,0.486,0.491,0.4943,0.4974,0.5011,0.5022,0.504,0.5048,0.5037,0.5035,0.5052,0.5053,0.5065,0.5065,0.5065,0.5064,0,0.446,0.4502,0.4546,0.4605,0.462,0.4642,0.4692,0.4716,0.4748,0.4786,0.4797,0.4848,0.4889,0.4931,0.4986,0.5007,0.5043,0.5053,0.5027,0.5032,0.5038,0.5037,0.5052,0.5056,0.5064,0.5064,0.5064,0,0.4463,0.4486,0.4547,0.4569,0.4597,0.4633,0.4659,0.4702,0.4728,0.4781,0.4799,0.4842,0.4879,0.4943,0.4984,0.5027,0.5039,0.5041,0.5046,0.5034,0.5039,0.5037,0.504,0.504,0.5039,0.5039,0.5039,0,0.4463,0.4482,0.4519,0.4563,0.4594,0.463,0.4668,0.4685,0.4735,0.4762,0.4805,0.4833,0.4889,0.4932,0.4979,0.5008,0.5032,0.5037,0.5041,0.5031,0.5015,0.5023,0.5023,0.5037,0.5037,0.5037,0.5037,0.5037,0.4456,0.4478,0.4524,0.4564,0.4597,0.4631,0.4657,0.4692,0.4728,0.4777,0.48,0.4842,0.4886,0.4952,0.498,0.5013,0.502,0.5026,0.5028,0.5029,0.5026,0.5009,0.5022,0.5022,0.5022,0.5022,0.5022,0,0.4458,0.4489,0.4525,0.4577,0.4608,0.4627,0.467,0.4695,0.4732,0.4771,0.4806,0.4854,0.4895,0.494,0.4983,0.5001,0.5013,0.5012,0.5011,0.5017,0.5018,0.501,0.5001,0.5001,0.5001,0.5001,0.5001,0.5001,0.4462,0.4501,0.4525,0.458,0.4611,0.4652,0.4675,0.4707,0.4738,0.479,0.4825,0.4853,0.4894,0.4941,0.4979,0.4991,0.5006,0.5001,0.5016,0.5016,0.5017,0.5019,0.5011,0.5003,0.5003,0.5013,0.5013,0.5013]},{"header":{"parameterUnit":"m.s-1","parameterCategory":1,"la1":30.2991,"la2":30.254,"lo1":-89.0895,"lo2":-89.0444,"dy":0.0017,"dx":0.0017,"nx":28,"ny":28,"refTime":"2023-08-02T21:00:00:Z","depth":0,"parameterNumber":3,"parameterNumberName":"V-component_of_WINDS"},"data":[0,0,0,0,0,0,0,0,0,0,0,0,0,0,0,0,0,0,0,0,0,0,0,0,0,0,0,0,0,0,0,0,0,0,0,0,0,0,0,0,0,0,0,0,0,0,0,0,0,0,0,0,0,0,0,0,0,0,4.4056,4.4056,0,4.4005,4.4004,4.4004,4.4006,4.4007,4.4008,4.4008,4.3948,4.3946,4.3944,0,0,0,0,0,0,0,0,0,0,0,0,0,4.415,4.4148,4.4056,4.4056,4.4055,4.4005,4.4004,4.4004,4.4006,4.4007,4.4008,4.4009,4.3949,4.3946,4.3944,0,0,0,0,0,0,0,0,0,0,0,0,0,4.4105,4.4147,4.4056,4.405,4.4049,4.4005,4.4004,4.4003,4.4006,4.4007,4.4008,4.4009,4.395,4.3947,4.3943,4.3899,0,0,4.3933,4.3931,0,0,0,0,0,0,0,0,4.4107,4.4101,4.4052,4.4051,4.405,4.4013,4.4015,4.3968,4.4006,4.4022,4.4008,4.401,4.3968,4.3964,4.3951,4.3896,4.3894,4.3932,4.393,4.3929,4.3928,0,0,0,0,0,0,0,4.411,4.4103,4.4036,4.4051,4.405,4.4048,4.4043,4.4006,4.3989,4.4021,4.4021,4.4015,4.3968,4.3955,4.395,4.3893,4.3932,4.3929,4.3927,4.3926,4.3799,4.3798,0,0,0,0,0,0,4.4116,4.4106,4.4037,4.4034,4.4082,4.4045,4.404,4.4024,4.399,4.3986,4.4014,4.4015,4.396,4.3954,4.3948,4.3894,4.3929,4.3925,4.3924,4.38,4.3799,4.3797,0,0,0,0,0,0,4.4118,4.411,4.4039,4.407,4.4061,4.4043,4.4025,4.4022,4.4009,4.3985,4.3981,4.4004,4.3961,4.3953,4.3912,4.3892,4.3924,4.3921,4.3802,4.38,4.3798,4.3786,0,0,0,0,0,0,4.412,4.411,4.4095,4.407,4.406,4.4006,4.4023,4.402,4.4004,4.4005,4.3974,4.397,4.3961,4.3917,4.3908,4.3888,4.3918,4.3804,4.3801,4.3799,4.3788,4.3784,4.378,0,0,0,0,0,4.4124,4.4092,4.4094,4.4086,4.404,4.4005,4.3999,4.3991,4.4002,4.3985,4.397,4.3971,4.3896,4.3913,4.3903,4.3881,4.3805,4.3802,4.3799,4.379,4.3785,4.378,0,0,0,0,0,0,4.4112,4.4088,4.4091,4.405,4.403,4.4006,4.3985,4.3986,4.396,4.3962,4.395,4.3943,4.3902,4.3887,4.3907,4.3837,4.3851,4.3846,4.3848,4.3843,4.3839,4.3843,4.3915,0,0,0,0,0,4.4106,4.4081,4.4061,4.4027,4.4017,4.4003,4.3987,4.3983,4.396,4.3951,4.3933,4.3909,4.388,4.386,4.3832,4.3786,4.3779,4.3766,4.3762,4.3759,4.3755,4.3729,4.3723,4.3788,4.3788,4.3788,0,0,4.409,4.4074,4.4059,4.4025,4.4008,4.3982,4.3995,4.3966,4.3945,4.3946,4.3907,4.3893,4.3865,4.3821,4.3801,4.3808,4.3735,4.3756,4.3753,4.375,4.3725,4.3719,4.3713,4.3786,4.3786,4.3787,0,0,4.4049,4.4035,4.4006,4.399,4.3966,4.3957,4.395,4.3926,4.3917,4.3879,4.3878,4.3852,4.3802,4.3783,4.3766,4.3719,4.3718,4.371,4.3689,4.3664,4.3658,4.3654,4.3636,4.363,4.3705,4.3705,4.3705,0,4.4032,4.3994,4.399,4.3961,4.3945,4.3947,4.3916,4.39,4.3867,4.3855,4.3864,4.3802,4.3783,4.3735,4.3724,4.371,4.3701,4.3712,4.366,4.3655,4.3651,4.3634,4.3627,4.3704,4.3704,4.3705,4.3705,0,4.3975,4.3948,4.3927,4.3898,4.388,4.385,4.3839,4.382,4.3818,4.3807,4.3767,4.3745,4.3713,4.3701,4.3697,4.3652,4.3657,4.3663,4.3677,4.3644,4.3627,4.3621,4.3703,4.3703,4.3704,4.3704,0,0,4.3923,4.3894,4.3886,4.3873,4.3848,4.3826,4.3796,4.3767,4.3751,4.3728,4.3701,4.366,4.3665,4.3647,4.364,4.3619,4.3581,4.3627,4.3626,4.3619,4.3529,4.3525,4.3517,4.3582,4.3581,4.358,4.3531,0,4.3879,4.3828,4.3823,4.3776,4.3751,4.3753,4.3726,4.3707,4.3696,4.3671,4.3658,4.3629,4.3639,4.3628,4.3606,4.3591,4.3563,4.3594,4.3554,4.3553,4.3561,4.3509,4.3503,4.3459,4.3525,4.3524,4.3523,0,4.382,4.3799,4.375,4.3729,4.3718,4.3695,4.3668,4.3645,4.3622,4.3615,4.3596,4.3593,4.3559,4.3576,4.3529,4.355,4.3533,4.3523,4.3521,4.3516,4.3535,4.3501,4.3445,4.3438,4.3513,4.3514,4.3515,0,4.3786,4.3745,4.3711,4.37,4.3675,4.3658,4.3646,4.3625,4.3608,4.3583,4.3572,4.3543,4.3527,4.3503,4.3492,4.3506,4.3445,4.3461,4.3437,4.3437,4.3423,4.3424,4.3362,4.3414,4.3414,4.3414,4.3414,0,4.3737,4.3707,4.3696,4.3675,4.3641,4.3635,4.3601,4.3589,4.357,4.3545,4.3544,4.352,4.3508,4.3481,4.3472,4.3433,4.3426,4.3418,4.3416,4.3418,4.3419,4.3406,4.3408,4.3413,4.3413,4.3413,4.3414,0,4.3693,4.3685,4.3648,4.3628,4.3622,4.3598,4.3579,4.3557,4.3548,4.3516,4.3508,4.3492,4.3461,4.3448,4.3408,4.3402,4.3358,4.3358,4.3366,4.3365,4.3342,4.3344,4.3269,4.3258,4.3318,4.3318,4.3317,0,4.3661,4.3639,4.3617,4.3602,4.359,4.3565,4.3548,4.3541,4.3524,4.3497,4.3478,4.3447,4.3423,4.3372,4.3355,4.3325,4.3324,4.33,4.3319,4.3322,4.3323,4.3324,4.3321,4.3296,4.3295,4.3295,4.3294,0,4.3606,4.3603,4.3581,4.3557,4.3538,4.3518,4.3498,4.3485,4.3475,4.3455,4.3424,4.3406,4.3367,4.3336,4.3306,4.329,4.329,4.3289,4.3281,4.3283,4.3288,4.3284,4.3356,4.329,4.3291,4.3291,4.3291,4.3291,4.3566,4.3547,4.3529,4.3504,4.3489,4.3471,4.345,4.3439,4.3414,4.3384,4.3381,4.3348,4.3325,4.3285,4.3269,4.3241,4.3247,4.3236,4.3234,4.3231,4.3229,4.3294,4.3235,4.3236,4.3236,4.3236,4.3236,0,4.351,4.3499,4.3477,4.3451,4.3431,4.3435,4.3414,4.3396,4.3368,4.3348,4.3325,4.329,4.326,4.3242,4.3211,4.3193,4.3192,4.3185,4.3186,4.3182,4.3226,4.3235,4.3186,4.3186,4.3186,4.3186,4.3186,4.3186,4.3479,4.3445,4.3441,4.34,4.3388,4.3358,4.3346,4.3329,4.3313,4.3275,4.3251,4.3241,4.322,4.3189,4.3161,4.3156,4.3145,4.3137,4.3133,4.3174,4.3179,4.3184,4.3192,4.3135,4.3135,4.3091,4.309,4.309]}]]